SL-14 DEB, 45291

Orbit data source: Space-Track

SL-14 DEB, 45291 is space debris in LEO originally from a launch on Thu, 15 Aug 1991 UTC launched from the Plesetsk Missile And Space Complex (PKMTR). Debris objects in space refer to the collection of defunct objects orbiting the Earth. Examples of debris include non-operational satellites, rocket bodies, and fragments generated from explosions, collisions, or faulty payload assembly.

Loading next visibility...
Identifier
45291, 1991-056AD
Orbit
LEO
Country
Flag of CISCIS
Related business
Manufacturer
Unknown
Mission
Spacecraft
Bus & Motor
Unknown
Mass
Unknown
Launch date (UTC)
1991-08-15 (35 years ago)
Launch vehicle
Unknown
Launch site
Plesetsk Missile And Space Complex (PKMTR)
Object type
Payload
Rocket body
Debris
Shape & HBR
Unknown shape, 0.1 m
Radar Cross Section
Small (<0.1 m²)

Expand to show TLE details & history
Last TLE update: 12 hours ago

TLE from 12 hours ago
0 SL-14 DEB
1 45291U 91056AD  26126.59967558  .00000368  00000-0  10053-2 0  9991
2 45291  82.5502 186.3858 0039422  65.6444 294.8783 13.10930813297124
Epoch: 2026-05-06T14:23Z
TLE epoch observation values (Epoch: 2026-05-06T14:23:31.970Z)
Latitude
0.00006°
Longitude
106.04475°
Altitude
1,209.854 km
Speed
7.255 km/s
True Right ascension
12h 25m 32s
True Declination
0° 00' 00"
Sunlit
Object was in full shadow at epoch
Visualization orbit readout
Latitude
Unknown
Longitude
Unknown
Altitude
Unknown
Speed
Unknown
Apparent Right ascension
Unknown
Apparent Declination
Unknown
Sunlit
N/A
Visualization observer readout
Local Sidereal Time
10:07:17
Azimuth
Unknown
Elevation
Unknown
Doppler factor
Unknown
Orbital elements
Apogee altitude
1,246.754 km
Perigee altitude
1,186.873 km
Semi-major axis
7,594.951 km
Eccentricity
0.00394
Inclination
82.5502°
RAAN
186.3858°
Arg. of periapsis
65.6444°
True anomaly
294.46763°
Mean anomaly
294.8783°
Eccentric anomaly
294.67305°
Mean motion
3.27911 °/min
Orbital period
109.79 mins
BSTAR
0.0010053
Loading maneuver chart data...
Computing Atmospheric mass density...
Loading historical data...
Loading historical data...
Loading historical data...
Loading historical data...
Loading historical data...
Loading historical data...
Loading historical data...

Documentation

Showing up to 5 results
|